Time,TemperatureF,DewpointF,PressureIn,WindDirection,WindDirectionDegrees,WindSpeedMPH,WindSpeedGustMPH,Humidity,HourlyPrecipIn,Conditions,Clouds,dailyrainin,SoftwareType,DateUTC
2013-04-26 00:00:00,49.6,34.6,29.97,South,180,0.0,0.0,56,0.00,BKN,,0.00,WeatherDisplay:10.37,2013-04-26 04:00:00,
2013-04-26 00:01:00,49.6,34.6,29.97,South,180,0.0,0.0,56,0.00,BKN,,0.00,WeatherDisplay:10.37,2013-04-26 04:01:00,
2013-04-26 00:02:00,49.5,34.4,29.97,South,180,0.0,0.0,56,0.00,BKN,,0.00,WeatherDisplay:10.37,2013-04-26 04:02:00,
2013-04-26 00:03:00,49.5,34.8,29.97,South,180,0.0,0.0,57,0.00,BKN,,0.00,WeatherDisplay:10.37,2013-04-26 04:03:00,
2013-04-26 00:07:00,49.3,34.7,29.97,South,180,0.0,0.0,57,0.00,BKN,,0.00,WeatherDisplay:10.37,2013-04-26 04:07:00,
2013-04-26 00:12:00,49.1,34.9,29.92,South,180,0.0,0.0,58,0.00,BKN,,0.00,WeatherDisplay:10.37,2013-04-26 04:12:00,
2013-04-26 00:17:00,48.9,35.2,29.92,SSE,158,0.0,0.0,59,0.00,FEW,,0.00,WeatherDisplay:10.37,2013-04-26 04:17:00,
2013-04-26 00:22:00,48.7,35.0,29.92,SSE,158,0.0,0.0,59,0.00,FEW,,0.00,WeatherDisplay:10.37,2013-04-26 04:22:00,
2013-04-26 00:27:00,48.7,35.0,29.92,SSE,158,0.0,0.0,59,0.00,FEW,,0.00,WeatherDisplay:10.37,2013-04-26 04:27:00,
2013-04-26 00:32:00,48.4,35.1,29.95,SSE,158,0.0,0.0,60,0.00,FEW,,0.00,WeatherDisplay:10.37,2013-04-26 04:32:00,
2013-04-26 00:37:00,48.2,35.0,29.95,SSE,158,0.0,0.0,60,0.00,FEW,,0.00,WeatherDisplay:10.37,2013-04-26 04:37:00,
2013-04-26 00:42:00,48.2,35.0,29.95,SSE,158,0.0,0.0,60,0.00,FEW,,0.00,WeatherDisplay:10.37,2013-04-26 04:42:00,
2013-04-26 00:47:00,48.0,35.2,29.95,SSE,158,0.0,0.0,61,0.00,FEW,,0.00,WeatherDisplay:10.37,2013-04-26 04:47:00,
2013-04-26 00:52:00,48.0,35.2,29.97,SSE,158,0.0,0.0,61,0.00,FEW,,0.00,WeatherDisplay:10.37,2013-04-26 04:52:00,
2013-04-26 00:57:00,47.7,34.9,29.97,SSE,158,0.0,0.0,61,0.00,FEW,,0.00,WeatherDisplay:10.37,2013-04-26 04:57:00,
2013-04-26 01:02:00,47.5,35.1,29.97,SSW,202,0.0,0.0,62,0.00,FEW,,0.00,WeatherDisplay:10.37,2013-04-26 05:02:00,
2013-04-26 01:07:00,47.3,35.3,29.97,West,270,0.0,0.0,63,0.00,FEW,,0.00,WeatherDisplay:10.37,2013-04-26 05:07:00,
2013-04-26 01:12:00,47.1,35.6,29.97,NW,315,0.0,0.0,64,0.00,FEW,,0.00,WeatherDisplay:10.37,2013-04-26 05:12:00,
2013-04-26 01:17:00,46.9,35.4,29.97,NW,315,0.0,0.0,64,0.00,FEW,,0.00,WeatherDisplay:10.37,2013-04-26 05:17:00,
2013-04-26 01:22:00,46.9,35.8,29.97,NW,315,0.0,0.0,65,0.00,FEW,,0.00,WeatherDisplay:10.37,2013-04-26 05:22:00,
2013-04-26 01:27:00,46.6,35.4,29.97,SW,225,0.0,0.0,65,0.00,FEW,,0.00,WeatherDisplay:10.37,2013-04-26 05:27:00,
2013-04-26 01:32:00,46.6,35.4,29.98,SW,225,0.0,0.0,65,0.00,FEW,,0.00,WeatherDisplay:10.37,2013-04-26 05:32:00,
2013-04-26 01:37:00,46.6,35.8,29.98,SSW,202,0.0,0.0,66,0.00,FEW,,0.00,WeatherDisplay:10.37,2013-04-26 05:37:00,
2013-04-26 01:42:00,46.6,35.8,29.98,SW,225,0.0,0.0,66,0.00,FEW,,0.00,WeatherDisplay:10.37,2013-04-26 05:42:00,
2013-04-26 01:47:00,46.4,35.3,29.98,SW,225,0.0,0.0,65,0.00,FEW,,0.00,WeatherDisplay:10.37,2013-04-26 05:47:00,
2013-04-26 01:52:00,46.0,35.3,29.83,SSW,202,0.0,0.0,66,0.00,FEW,,0.00,WeatherDisplay:10.37,2013-04-26 05:52:00,
2013-04-26 01:57:00,46.0,35.3,29.83,SSW,202,0.0,0.0,66,0.00,FEW,,0.00,WeatherDisplay:10.37,2013-04-26 05:57:00,
2013-04-26 02:02:00,46.2,35.5,29.83,SSW,202,0.0,0.0,66,0.00,FEW,,0.00,WeatherDisplay:10.37,2013-04-26 06:02:00,
2013-04-26 02:07:00,46.0,34.9,29.83,SSE,158,0.0,0.0,65,0.00,FEW,,0.00,WeatherDisplay:10.37,2013-04-26 06:07:00,
2013-04-26 02:12:00,45.9,34.8,29.95,SSE,158,0.0,0.0,65,0.00,FEW,,0.00,WeatherDisplay:10.37,2013-04-26 06:12:00,
2013-04-26 02:17:00,45.9,34.8,29.95,WSW,248,0.0,0.0,65,0.00,FEW,,0.00,WeatherDisplay:10.37,2013-04-26 06:17:00,
2013-04-26 02:22:00,45.5,34.4,29.95,SW,225,0.0,0.0,65,0.00,FEW,,0.00,WeatherDisplay:10.37,2013-04-26 06:22:00,
2013-04-26 02:27:00,45.5,34.4,29.95,SW,225,0.0,0.0,65,0.00,FEW,,0.00,WeatherDisplay:10.37,2013-04-26 06:27:00,
2013-04-26 02:32:00,45.5,34.0,29.95,WSW,248,0.0,0.0,64,0.00,FEW,,0.00,WeatherDisplay:10.37,2013-04-26 06:32:00,
2013-04-26 02:37:00,45.3,34.2,29.95,SSW,202,0.0,0.0,65,0.00,FEW,,0.00,WeatherDisplay:10.37,2013-04-26 06:37:00,
2013-04-26 02:42:00,45.3,34.2,29.95,NW,315,0.0,0.0,65,0.00,FEW,,0.00,WeatherDisplay:10.37,2013-04-26 06:42:00,
2013-04-26 02:47:00,45.1,33.7,29.95,SW,225,0.0,0.0,64,0.00,FEW,,0.00,WeatherDisplay:10.37,2013-04-26 06:47:00,
2013-04-26 02:52:00,45.1,34.1,29.88,SSW,202,0.0,0.0,65,0.00,FEW,,0.00,WeatherDisplay:10.37,2013-04-26 06:52:00,
2013-04-26 02:57:00,45.1,34.1,29.88,SSW,202,0.0,0.0,65,0.00,FEW,,0.00,WeatherDisplay:10.37,2013-04-26 06:57:00,
2013-04-26 03:02:00,45.1,34.1,29.88,WSW,248,0.0,0.0,65,0.00,FEW,,0.00,WeatherDisplay:10.37,2013-04-26 07:02:00,
2013-04-26 03:07:00,45.1,34.5,29.88,WSW,248,0.0,0.0,66,0.00,FEW,,0.00,WeatherDisplay:10.37,2013-04-26 07:07:00,
2013-04-26 03:12:00,44.8,34.1,29.89,WSW,248,0.0,0.0,66,0.00,FEW,,0.00,WeatherDisplay:10.37,2013-04-26 07:12:00,
2013-04-26 03:17:00,44.8,34.1,29.89,WSW,248,0.0,0.0,66,0.00,FEW,,0.00,WeatherDisplay:10.37,2013-04-26 07:17:00,
2013-04-26 03:22:00,44.6,33.6,29.89,WSW,248,0.0,0.0,65,0.00,FEW,,0.00,WeatherDisplay:10.37,2013-04-26 07:22:00,
2013-04-26 03:27:00,44.6,33.6,29.89,SW,225,0.0,0.0,65,0.00,FEW,,0.00,WeatherDisplay:10.37,2013-04-26 07:27:00,
2013-04-26 03:32:00,44.6,33.9,29.93,SSW,202,0.0,0.0,66,0.00,FEW,,0.00,WeatherDisplay:10.37,2013-04-26 07:32:00,
2013-04-26 03:37:00,44.4,33.8,29.93,South,180,0.0,0.0,66,0.00,FEW,,0.00,WeatherDisplay:10.37,2013-04-26 07:37:00,
2013-04-26 03:42:00,44.4,33.4,29.93,SW,225,0.0,0.0,65,0.00,FEW,,0.00,WeatherDisplay:10.37,2013-04-26 07:42:00,
2013-04-26 03:47:00,44.2,33.2,29.93,NW,315,0.0,0.0,65,0.00,FEW,,0.00,WeatherDisplay:10.37,2013-04-26 07:47:00,
2013-04-26 03:52:00,44.1,33.0,29.93,WSW,248,0.0,0.0,65,0.00,FEW,,0.00,WeatherDisplay:10.37,2013-04-26 07:52:00,
2013-04-26 03:57:00,44.1,33.0,29.93,SW,225,0.0,0.0,65,0.00,FEW,,0.00,WeatherDisplay:10.37,2013-04-26 07:57:00,
2013-04-26 04:02:00,43.9,32.9,29.93,WNW,292,0.0,0.0,65,0.00,FEW,,0.00,WeatherDisplay:10.37,2013-04-26 08:02:00,
2013-04-26 04:07:00,43.9,33.3,29.93,WNW,292,0.0,0.0,66,0.00,FEW,,0.00,WeatherDisplay:10.37,2013-04-26 08:07:00,
2013-04-26 04:12:00,43.9,32.9,29.94,WNW,292,0.0,0.0,65,0.00,FEW,,0.00,WeatherDisplay:10.37,2013-04-26 08:12:00,
2013-04-26 04:17:00,43.7,33.5,29.94,SW,225,0.0,0.0,67,0.00,FEW,,0.00,WeatherDisplay:10.37,2013-04-26 08:17:00,
2013-04-26 04:22:00,43.7,33.5,29.94,South,180,0.0,0.0,67,0.00,FEW,,0.00,WeatherDisplay:10.37,2013-04-26 08:22:00,
2013-04-26 04:27:00,43.7,33.8,29.94,SSW,202,1.2,0.0,68,0.00,FEW,,0.00,WeatherDisplay:10.37,2013-04-26 08:27:00,
2013-04-26 04:32:00,43.7,33.8,29.95,SW,225,0.0,0.1,68,0.00,FEW,,0.00,WeatherDisplay:10.37,2013-04-26 08:32:00,
2013-04-26 04:37:00,43.7,33.5,29.95,SW,225,0.0,0.0,67,0.00,FEW,,0.00,WeatherDisplay:10.37,2013-04-26 08:37:00,
2013-04-26 04:42:00,43.7,33.5,29.95,SW,225,0.0,0.0,67,0.00,FEW,,0.00,WeatherDisplay:10.37,2013-04-26 08:42:00,
2013-04-26 04:47:00,43.3,33.1,29.95,ESE,112,0.0,0.0,67,0.00,FEW,,0.00,WeatherDisplay:10.37,2013-04-26 08:47:00,
2013-04-26 04:52:00,43.3,33.1,29.95,SW,225,0.0,0.0,67,0.00,FEW,,0.00,WeatherDisplay:10.37,2013-04-26 08:52:00,
2013-04-26 04:57:00,43.2,32.9,29.95,SW,225,0.0,0.0,67,0.00,FEW,,0.00,WeatherDisplay:10.37,2013-04-26 08:57:00,
2013-04-26 05:02:00,43.3,33.5,29.95,SW,225,0.0,0.0,68,0.00,FEW,,0.00,WeatherDisplay:10.37,2013-04-26 09:02:00,
2013-04-26 05:07:00,43.3,33.5,29.95,WSW,248,0.0,0.0,68,0.00,FEW,,0.00,WeatherDisplay:10.37,2013-04-26 09:07:00,
2013-04-26 05:12:00,43.0,33.1,29.96,WSW,248,0.0,0.0,68,0.00,FEW,,0.00,WeatherDisplay:10.37,2013-04-26 09:12:00,
2013-04-26 05:17:00,43.0,32.8,29.96,SW,225,0.0,0.0,67,0.00,FEW,,0.00,WeatherDisplay:10.37,2013-04-26 09:17:00,
2013-04-26 05:22:00,43.0,33.1,29.96,SSW,202,0.0,0.0,68,0.00,FEW,,0.00,WeatherDisplay:10.37,2013-04-26 09:22:00,
2013-04-26 05:27:00,42.8,32.6,29.96,SW,225,0.0,0.0,67,0.00,FEW,,0.00,WeatherDisplay:10.37,2013-04-26 09:27:00,
2013-04-26 05:32:00,43.0,32.4,29.96,WSW,248,0.0,0.0,66,0.00,FEW,,0.00,WeatherDisplay:10.37,2013-04-26 09:32:00,
2013-04-26 05:37:00,42.6,32.4,29.96,NW,315,0.0,0.0,67,0.00,FEW,,0.00,WeatherDisplay:10.37,2013-04-26 09:37:00,
2013-04-26 05:42:00,42.6,32.8,29.96,NW,315,0.0,0.0,68,0.00,FEW,,0.00,WeatherDisplay:10.37,2013-04-26 09:42:00,
2013-04-26 05:47:00,42.4,33.0,29.96,NW,315,0.0,0.0,69,0.00,FEW,,0.00,WeatherDisplay:10.37,2013-04-26 09:47:00,
2013-04-26 05:52:00,42.4,33.0,29.97,WNW,292,0.0,0.0,69,0.00,FEW,,0.00,WeatherDisplay:10.37,2013-04-26 09:52:00,
2013-04-26 05:57:00,42.6,33.2,29.97,West,270,0.0,0.0,69,0.00,FEW,,0.00,WeatherDisplay:10.37,2013-04-26 09:57:00,
2013-04-26 06:02:00,42.4,33.0,29.97,SW,225,0.0,0.0,69,0.00,FEW,,0.00,WeatherDisplay:10.37,2013-04-26 10:02:00,
2013-04-26 06:07:00,42.4,33.0,29.97,SSW,202,0.0,0.0,69,0.00,FEW,,0.00,WeatherDisplay:10.37,2013-04-26 10:07:00,
2013-04-26 06:12:00,42.6,33.5,29.95,SSW,202,0.0,0.0,70,0.00,FEW,,0.00,WeatherDisplay:10.37,2013-04-26 10:12:00,
2013-04-26 06:17:00,42.6,33.5,29.95,NW,315,1.2,0.0,70,0.00,FEW,,0.00,WeatherDisplay:10.37,2013-04-26 10:17:00,
2013-04-26 06:22:00,42.6,33.5,29.95,NNW,338,0.0,0.0,70,0.00,FEW,,0.00,WeatherDisplay:10.37,2013-04-26 10:22:00,
2013-04-26 06:27:00,42.4,33.3,29.95,WNW,292,0.0,0.0,70,0.00,FEW,,0.00,WeatherDisplay:10.37,2013-04-26 10:27:00,
2013-04-26 06:32:00,42.8,33.7,30.00,West,270,0.0,0.0,70,0.00,FEW,,0.00,WeatherDisplay:10.37,2013-04-26 10:32:00,
2013-04-26 06:37:00,43.2,33.7,30.00,NW,315,1.5,1.5,69,0.00,FEW,,0.00,WeatherDisplay:10.37,2013-04-26 10:37:00,
2013-04-26 06:42:00,43.7,34.2,30.00,WNW,292,0.0,0.5,69,0.00,FEW,,0.00,WeatherDisplay:10.37,2013-04-26 10:42:00,
2013-04-26 06:47:00,44.4,34.5,29.91,NW,315,0.0,0.3,68,0.00,FEW,,0.00,WeatherDisplay:10.37,2013-04-26 10:47:00,
2013-04-26 06:52:00,45.0,34.3,29.91,NW,315,2.3,2.3,66,0.00,FEW,,0.00,WeatherDisplay:10.37,2013-04-26 10:52:00,
2013-04-26 06:57:00,46.8,34.8,29.91,WNW,292,4.6,4.6,63,0.00,FEW,,0.00,WeatherDisplay:10.37,2013-04-26 10:57:00,
2013-04-26 07:02:00,48.2,35.0,29.91,NW,315,1.3,1.4,60,0.00,FEW,,0.00,WeatherDisplay:10.37,2013-04-26 11:02:00,
2013-04-26 07:07:00,48.7,34.6,30.04,NW,315,2.3,2.3,58,0.00,FEW,,0.00,WeatherDisplay:10.37,2013-04-26 11:07:00,
2013-04-26 07:12:00,49.3,33.8,30.04,NW,315,5.1,5.1,55,0.00,FEW,,0.00,WeatherDisplay:10.37,2013-04-26 11:12:00,
2013-04-26 07:17:00,50.9,34.8,30.04,NNW,338,4.6,4.6,54,0.00,FEW,,0.00,WeatherDisplay:10.37,2013-04-26 11:17:00,
2013-04-26 07:22:00,52.3,34.7,30.04,NW,315,5.8,5.8,51,0.00,FEW,,0.00,WeatherDisplay:10.37,2013-04-26 11:22:00,
2013-04-26 07:27:00,53.8,35.6,30.03,NW,315,4.6,4.6,50,0.00,FEW,,0.00,WeatherDisplay:10.37,2013-04-26 11:27:00,
2013-04-26 07:32:00,54.9,35.5,30.03,NW,315,6.9,6.9,48,0.00,FEW,,0.00,WeatherDisplay:10.37,2013-04-26 11:32:00,
2013-04-26 07:37:00,55.2,35.9,30.03,NNW,338,4.6,4.6,48,0.00,FEW,,0.00,WeatherDisplay:10.37,2013-04-26 11:37:00,
2013-04-26 07:42:00,55.4,34.9,30.03,NW,315,3.7,3.7,46,0.00,FEW,,0.00,WeatherDisplay:10.37,2013-04-26 11:42:00,
2013-04-26 07:47:00,55.2,34.8,30.00,North,0,4.9,4.9,46,0.00,FEW,,0.00,WeatherDisplay:10.37,2013-04-26 11:47:00,
2013-04-26 07:52:00,55.2,34.2,30.00,WNW,292,5.8,5.8,45,0.00,FEW,,0.00,WeatherDisplay:10.37,2013-04-26 11:52:00,
2013-04-26 07:57:00,56.1,35.1,30.00,NNW,338,6.9,6.9,45,0.00,FEW,,0.00,WeatherDisplay:10.37,2013-04-26 11:57:00,
2013-04-26 08:02:00,56.8,35.7,30.00,WNW,292,9.2,9.2,45,0.00,FEW,,0.00,WeatherDisplay:10.37,2013-04-26 12:02:00,
2013-04-26 08:07:00,57.4,35.6,30.00,WNW,292,3.5,3.5,44,0.00,FEW,,0.00,WeatherDisplay:10.37,2013-04-26 12:07:00,
2013-04-26 08:12:00,58.1,35.7,30.00,NNW,338,5.8,5.8,43,0.00,FEW,,0.00,WeatherDisplay:10.37,2013-04-26 12:12:00,
2013-04-26 08:17:00,58.1,35.7,30.00,NNW,338,5.8,5.8,43,0.00,FEW,,0.00,WeatherDisplay:10.37,2013-04-26 12:17:00,
2013-04-26 08:22:00,57.7,35.4,30.00,WNW,292,9.2,9.2,43,0.00,FEW,,0.00,WeatherDisplay:10.37,2013-04-26 12:22:00,
2013-04-26 08:27:00,57.4,35.6,30.03,NW,315,6.0,6.0,44,0.00,FEW,,0.00,WeatherDisplay:10.37,2013-04-26 12:27:00,
2013-04-26 08:32:00,57.6,35.8,30.03,NNW,338,6.9,6.9,44,0.00,FEW,,0.00,WeatherDisplay:10.37,2013-04-26 12:32:00,
2013-04-26 08:37:00,57.0,35.3,30.03,NW,315,8.1,8.1,44,0.00,FEW,,0.00,WeatherDisplay:10.37,2013-04-26 12:37:00,
2013-04-26 08:42:00,56.5,35.4,30.03,NW,315,9.2,9.2,45,0.00,FEW,,0.00,WeatherDisplay:10.37,2013-04-26 12:42:00,
2013-04-26 08:47:00,56.1,35.6,30.05,NNW,338,10.4,10.4,46,0.00,FEW,,0.00,WeatherDisplay:10.37,2013-04-26 12:47:00,
2013-04-26 08:52:00,56.1,36.1,30.05,NW,315,4.6,4.6,47,0.00,FEW,,0.00,WeatherDisplay:10.37,2013-04-26 12:52:00,
2013-04-26 08:57:00,56.7,36.1,30.05,NNW,338,8.1,8.1,46,0.00,FEW,,0.00,WeatherDisplay:10.37,2013-04-26 12:57:00,
2013-04-26 09:02:00,56.8,35.7,30.05,NW,315,9.2,9.2,45,0.00,FEW,,0.00,WeatherDisplay:10.37,2013-04-26 13:02:00,
2013-04-26 09:07:00,56.8,36.3,30.06,NW,315,3.5,4.0,46,0.00,FEW,,0.00,WeatherDisplay:10.37,2013-04-26 13:07:00,
2013-04-26 09:12:00,57.0,35.9,30.06,NW,315,4.6,4.6,45,0.00,FEW,,0.00,WeatherDisplay:10.37,2013-04-26 13:12:00,
2013-04-26 09:17:00,57.0,36.4,30.06,NW,315,4.6,4.6,46,0.00,FEW,,0.00,WeatherDisplay:10.37,2013-04-26 13:17:00,
2013-04-26 09:22:00,56.8,36.3,30.06,WNW,292,5.8,5.8,46,0.00,FEW,,0.00,WeatherDisplay:10.37,2013-04-26 13:22:00,
2013-04-26 09:27:00,57.0,35.9,30.06,NW,315,4.6,4.6,45,0.00,FEW,,0.00,WeatherDisplay:10.37,2013-04-26 13:27:00,
2013-04-26 09:32:00,57.4,37.3,30.06,WNW,292,3.5,3.5,47,0.00,FEW,,0.00,WeatherDisplay:10.37,2013-04-26 13:32:00,
2013-04-26 09:37:00,57.4,36.2,30.06,NW,315,8.2,8.2,45,0.00,FEW,,0.00,WeatherDisplay:10.37,2013-04-26 13:37:00,
2013-04-26 09:42:00,57.4,36.2,30.06,NW,315,4.6,4.7,45,0.00,FEW,,0.00,WeatherDisplay:10.37,2013-04-26 13:42:00,
2013-04-26 09:47:00,57.4,36.2,30.06,NW,315,4.6,4.6,45,0.00,FEW,,0.00,WeatherDisplay:10.37,2013-04-26 13:47:00,
2013-04-26 09:52:00,57.6,36.9,30.06,NW,315,3.5,3.5,46,0.00,FEW,,0.00,WeatherDisplay:10.37,2013-04-26 13:52:00,
2013-04-26 09:57:00,57.6,35.8,30.06,North,0,6.9,6.9,44,0.00,FEW,,0.00,WeatherDisplay:10.37,2013-04-26 13:57:00,
2013-04-26 10:02:00,57.7,36.0,30.06,NNE,22,8.1,8.1,44,0.00,FEW,,0.00,WeatherDisplay:10.37,2013-04-26 14:02:00,
2013-04-26 10:07:00,58.1,36.3,29.98,West,270,5.8,5.8,44,0.00,FEW,,0.00,WeatherDisplay:10.37,2013-04-26 14:07:00,
2013-04-26 10:12:00,58.1,36.3,29.98,WNW,292,3.5,3.5,44,0.00,FEW,,0.00,WeatherDisplay:10.37,2013-04-26 14:12:00,
2013-04-26 10:17:00,58.5,36.0,29.98,NNW,338,5.8,5.8,43,0.00,FEW,,0.00,WeatherDisplay:10.37,2013-04-26 14:17:00,
2013-04-26 10:22:00,58.5,35.4,29.98,West,270,4.6,4.6,42,0.00,FEW,,0.00,WeatherDisplay:10.37,2013-04-26 14:22:00,
2013-04-26 10:27:00,58.8,35.8,30.06,SW,225,6.9,6.9,42,0.00,FEW,,0.00,WeatherDisplay:10.37,2013-04-26 14:27:00,
2013-04-26 10:32:00,59.0,35.3,30.06,NW,315,4.6,4.6,41,0.00,FEW,,0.00,WeatherDisplay:10.37,2013-04-26 14:32:00,
2013-04-26 10:37:00,59.0,34.7,30.06,NW,315,5.8,5.8,40,0.00,FEW,,0.00,WeatherDisplay:10.37,2013-04-26 14:37:00,
2013-04-26 10:42:00,59.5,35.8,30.06,WSW,248,2.3,3.0,41,0.00,FEW,,0.00,WeatherDisplay:10.37,2013-04-26 14:42:00,
2013-04-26 10:47:00,59.7,36.6,30.03,NW,315,3.5,3.5,42,0.00,FEW,,0.00,WeatherDisplay:10.37,2013-04-26 14:47:00,
2013-04-26 10:52:00,60.3,35.8,30.03,ESE,112,3.5,3.5,40,0.00,FEW,,0.00,WeatherDisplay:10.37,2013-04-26 14:52:00,
2013-04-26 10:57:00,60.8,36.3,30.03,NW,315,4.6,4.6,40,0.00,FEW,,0.00,WeatherDisplay:10.37,2013-04-26 14:57:00,
2013-04-26 11:02:00,61.0,33.8,30.03,ENE,68,6.9,6.9,36,0.00,FEW,,0.00,WeatherDisplay:10.37,2013-04-26 15:02:00,
2013-04-26 11:07:00,61.3,34.8,30.05,NNW,338,1.2,2.8,37,0.00,FEW,,0.00,WeatherDisplay:10.37,2013-04-26 15:07:00,
2013-04-26 11:12:00,61.7,35.8,30.05,NE,45,3.5,3.5,38,0.00,FEW,,0.00,WeatherDisplay:10.37,2013-04-26 15:12:00,
2013-04-26 11:17:00,62.1,36.1,30.05,NW,315,3.5,3.5,38,0.00,FEW,,0.00,WeatherDisplay:10.37,2013-04-26 15:17:00,
2013-04-26 11:22:00,62.6,35.3,30.05,WNW,292,4.6,4.6,36,0.00,FEW,,0.00,WeatherDisplay:10.37,2013-04-26 15:22:00,
2013-04-26 11:27:00,63.0,34.1,30.01,West,270,5.8,5.8,34,0.00,FEW,,0.00,WeatherDisplay:10.37,2013-04-26 15:27:00,
2013-04-26 11:32:00,63.1,32.8,30.01,WSW,248,5.8,5.8,32,0.00,FEW,,0.00,WeatherDisplay:10.37,2013-04-26 15:32:00,
2013-04-26 11:37:00,63.1,33.5,30.01,West,270,5.8,5.8,33,0.00,FEW,,0.00,WeatherDisplay:10.37,2013-04-26 15:37:00,
2013-04-26 11:42:00,63.3,34.4,30.01,WSW,248,3.5,3.5,34,0.00,FEW,,0.00,WeatherDisplay:10.37,2013-04-26 15:42:00,
2013-04-26 11:47:00,63.3,35.2,29.96,WSW,248,4.6,4.6,35,0.00,FEW,,0.00,WeatherDisplay:10.37,2013-04-26 15:47:00,
2013-04-26 11:52:00,63.3,34.4,29.96,NW,315,4.6,4.6,34,0.00,FEW,,0.00,WeatherDisplay:10.37,2013-04-26 15:52:00,
2013-04-26 11:57:00,63.3,35.2,29.96,NW,315,4.6,4.6,35,0.00,FEW,,0.00,WeatherDisplay:10.37,2013-04-26 15:57:00,
2013-04-26 12:02:00,63.5,35.3,29.96,NW,315,4.6,4.6,35,0.00,FEW,,0.00,WeatherDisplay:10.37,2013-04-26 16:02:00,
2013-04-26 12:07:00,63.3,34.4,30.00,NW,315,2.8,2.8,34,0.00,FEW,,0.00,WeatherDisplay:10.37,2013-04-26 16:07:00,
2013-04-26 12:12:00,63.5,34.6,30.00,NW,315,2.3,2.3,34,0.00,FEW,,0.00,WeatherDisplay:10.37,2013-04-26 16:12:00,
2013-04-26 12:17:00,63.3,34.4,30.00,NW,315,8.5,8.5,34,0.00,FEW,,0.00,WeatherDisplay:10.37,2013-04-26 16:17:00,
2013-04-26 12:22:00,63.1,32.8,30.00,WNW,292,3.5,3.5,32,0.00,FEW,,0.00,WeatherDisplay:10.37,2013-04-26 16:22:00,
2013-04-26 12:27:00,63.1,32.8,30.01,NW,315,4.6,4.6,32,0.00,FEW,,0.00,WeatherDisplay:10.37,2013-04-26 16:27:00,
2013-04-26 12:32:00,63.1,32.8,30.01,West,270,6.9,6.9,32,0.00,FEW,,0.00,WeatherDisplay:10.37,2013-04-26 16:32:00,
2013-04-26 12:37:00,63.3,32.1,30.01,NW,315,5.5,5.5,31,0.00,FEW,,0.00,WeatherDisplay:10.37,2013-04-26 16:37:00,
2013-04-26 12:42:00,63.1,32.0,30.01,WNW,292,4.9,4.9,31,0.00,FEW,,0.00,WeatherDisplay:10.37,2013-04-26 16:42:00,
2013-04-26 12:47:00,63.1,32.8,30.00,NW,315,6.9,6.9,32,0.00,FEW,,0.00,WeatherDisplay:10.37,2013-04-26 16:47:00,
2013-04-26 12:52:00,63.3,32.1,30.00,ESE,112,3.5,3.5,31,0.00,FEW,,0.00,WeatherDisplay:10.37,2013-04-26 16:52:00,
2013-04-26 12:57:00,63.3,32.1,30.00,NW,315,7.2,7.2,31,0.00,FEW,,0.00,WeatherDisplay:10.37,2013-04-26 16:57:00,
2013-04-26 13:02:00,63.3,32.1,30.00,SSW,202,6.9,6.9,31,0.00,FEW,,0.00,WeatherDisplay:10.37,2013-04-26 17:02:00,
2013-04-26 13:07:00,63.5,32.3,30.02,East,90,3.5,3.5,31,0.00,FEW,,0.00,WeatherDisplay:10.37,2013-04-26 17:07:00,
2013-04-26 13:12:00,63.5,33.1,30.02,North,0,5.8,5.8,32,0.00,FEW,,0.00,WeatherDisplay:10.37,2013-04-26 17:12:00,
2013-04-26 13:17:00,63.0,31.0,30.02,NNW,338,4.6,4.6,30,0.00,FEW,,0.00,WeatherDisplay:10.37,2013-04-26 17:17:00,
2013-04-26 13:22:00,63.1,32.0,30.02,WNW,292,5.8,5.8,31,0.00,FEW,,0.00,WeatherDisplay:10.37,2013-04-26 17:22:00,
2013-04-26 13:27:00,63.1,32.8,30.01,North,0,4.6,4.6,32,0.00,FEW,,0.00,WeatherDisplay:10.37,2013-04-26 17:27:00,
2013-04-26 13:32:00,63.3,33.7,30.01,NW,315,2.3,2.3,33,0.00,FEW,,0.00,WeatherDisplay:10.37,2013-04-26 17:32:00,
2013-04-26 13:37:00,63.5,32.3,30.01,NW,315,5.8,5.8,31,0.00,FEW,,0.00,WeatherDisplay:10.37,2013-04-26 17:37:00,
2013-04-26 13:42:00,63.9,32.6,30.01,NW,315,5.8,5.8,31,0.00,FEW,,0.00,WeatherDisplay:10.37,2013-04-26 17:42:00,
2013-04-26 13:47:00,64.0,32.8,29.97,WSW,248,4.6,4.6,31,0.00,FEW,,0.00,WeatherDisplay:10.37,2013-04-26 17:47:00,
2013-04-26 13:52:00,63.9,31.8,29.97,NNW,338,4.4,4.4,30,0.00,FEW,,0.00,WeatherDisplay:10.37,2013-04-26 17:52:00,
2013-04-26 13:57:00,63.9,29.2,29.97,NNE,22,4.6,4.6,27,0.00,FEW,,0.00,WeatherDisplay:10.37,2013-04-26 17:57:00,
2013-04-26 14:02:00,63.9,30.1,29.97,West,270,4.9,4.9,28,0.00,FEW,,0.00,WeatherDisplay:10.37,2013-04-26 18:02:00,
2013-04-26 14:07:00,63.7,28.1,29.85,NNW,338,6.9,6.9,26,0.00,FEW,,0.00,WeatherDisplay:10.37,2013-04-26 18:07:00,
2013-04-26 14:12:00,63.7,29.0,29.85,East,90,13.8,13.8,27,0.00,FEW,,0.00,WeatherDisplay:10.37,2013-04-26 18:12:00,
2013-04-26 14:17:00,64.0,29.4,29.85,NNE,22,3.5,3.5,27,0.00,FEW,,0.00,WeatherDisplay:10.37,2013-04-26 18:17:00,
2013-04-26 14:22:00,64.0,27.5,29.85,NNE,22,5.8,5.8,25,0.00,FEW,,0.00,WeatherDisplay:10.37,2013-04-26 18:22:00,
2013-04-26 14:27:00,64.2,30.4,29.97,NNW,338,4.6,4.6,28,0.00,FEW,,0.00,WeatherDisplay:10.37,2013-04-26 18:27:00,
2013-04-26 14:32:00,64.6,30.7,29.97,NNE,22,2.3,2.6,28,0.00,FEW,,0.00,WeatherDisplay:10.37,2013-04-26 18:32:00,
2013-04-26 14:37:00,64.9,30.1,29.97,West,270,4.6,4.6,27,0.00,FEW,,0.00,WeatherDisplay:10.37,2013-04-26 18:37:00,
2013-04-26 14:42:00,65.3,29.5,29.97,ENE,68,6.9,6.9,26,0.00,FEW,,0.00,WeatherDisplay:10.37,2013-04-26 18:42:00,
2013-04-26 14:47:00,65.1,29.4,29.99,NNW,338,4.7,4.7,26,0.00,FEW,,0.00,WeatherDisplay:10.37,2013-04-26 18:47:00,
2013-04-26 14:52:00,65.1,29.4,29.99,West,270,4.6,4.6,26,0.00,FEW,,0.00,WeatherDisplay:10.37,2013-04-26 18:52:00,
2013-04-26 14:57:00,65.5,29.7,29.99,South,180,2.3,3.2,26,0.00,FEW,,0.00,WeatherDisplay:10.37,2013-04-26 18:57:00,
2013-04-26 15:02:00,65.7,29.8,29.99,NW,315,6.9,6.9,26,0.00,FEW,,0.00,WeatherDisplay:10.37,2013-04-26 19:02:00,
2013-04-26 15:07:00,65.5,27.7,29.89,NW,315,4.6,4.6,24,0.00,FEW,,0.00,WeatherDisplay:10.37,2013-04-26 19:07:00,
2013-04-26 15:12:00,65.3,29.5,29.89,South,180,2.3,3.2,26,0.00,FEW,,0.00,WeatherDisplay:10.37,2013-04-26 19:12:00,
2013-04-26 15:17:00,65.5,28.7,29.89,NW,315,4.6,4.6,25,0.00,FEW,,0.00,WeatherDisplay:10.37,2013-04-26 19:17:00,
2013-04-26 15:22:00,65.5,27.7,29.89,South,180,4.6,4.6,24,0.00,FEW,,0.00,WeatherDisplay:10.37,2013-04-26 19:22:00,
2013-04-26 15:27:00,65.8,28.0,30.00,NNW,338,9.2,9.2,24,0.00,FEW,,0.00,WeatherDisplay:10.37,2013-04-26 19:27:00,
2013-04-26 15:32:00,66.0,27.1,30.00,NNE,22,5.8,5.8,23,0.00,FEW,,0.00,WeatherDisplay:10.37,2013-04-26 19:32:00,
2013-04-26 15:37:00,66.0,28.2,30.00,West,270,6.9,6.9,24,0.00,FEW,,0.00,WeatherDisplay:10.37,2013-04-26 19:37:00,
2013-04-26 15:42:00,66.0,27.1,30.00,West,270,4.6,4.6,23,0.00,FEW,,0.00,WeatherDisplay:10.37,2013-04-26 19:42:00,
2013-04-26 15:47:00,66.0,27.1,29.99,West,270,4.6,4.6,23,0.00,FEW,,0.00,WeatherDisplay:10.37,2013-04-26 19:47:00,
2013-04-26 15:52:00,66.4,28.5,29.99,NE,45,2.3,3.1,24,0.00,FEW,,0.00,WeatherDisplay:10.37,2013-04-26 19:52:00,
2013-04-26 15:57:00,66.2,27.3,29.99,SSE,158,6.9,6.9,23,0.00,FEW,,0.00,WeatherDisplay:10.37,2013-04-26 19:57:00,
2013-04-26 16:02:00,66.2,26.2,29.99,ENE,68,3.5,3.5,22,0.00,FEW,,0.00,WeatherDisplay:10.37,2013-04-26 20:02:00,
2013-04-26 16:07:00,66.0,27.1,30.00,WSW,248,3.5,3.5,23,0.00,FEW,,0.00,WeatherDisplay:10.37,2013-04-26 20:07:00,
2013-04-26 16:12:00,66.0,26.0,30.00,NNW,338,4.6,4.6,22,0.00,FEW,,0.00,WeatherDisplay:10.37,2013-04-26 20:12:00,
2013-04-26 16:17:00,66.0,27.1,30.00,West,270,10.4,10.4,23,0.00,FEW,,0.00,WeatherDisplay:10.37,2013-04-26 20:17:00,
2013-04-26 16:22:00,66.0,26.0,30.00,NNE,22,3.5,3.5,22,0.00,FEW,,0.00,WeatherDisplay:10.37,2013-04-26 20:22:00,
2013-04-26 16:27:00,65.8,27.0,29.99,NNW,338,6.9,6.9,23,0.00,FEW,,0.00,WeatherDisplay:10.37,2013-04-26 20:27:00,
2013-04-26 16:32:00,65.8,23.6,29.99,NNW,338,4.6,4.6,20,0.00,FEW,,0.00,WeatherDisplay:10.37,2013-04-26 20:32:00,
2013-04-26 16:37:00,66.0,26.0,29.99,NW,315,5.8,5.8,22,0.00,FEW,,0.00,WeatherDisplay:10.37,2013-04-26 20:37:00,
2013-04-26 16:42:00,65.7,26.8,29.99,NNW,338,4.6,4.6,23,0.00,FEW,,0.00,WeatherDisplay:10.37,2013-04-26 20:42:00,
2013-04-26 16:47:00,65.8,25.9,30.00,WNW,292,10.4,10.4,22,0.00,FEW,,0.00,WeatherDisplay:10.37,2013-04-26 20:47:00,
2013-04-26 16:52:00,65.8,25.9,30.00,NW,315,4.6,4.6,22,0.00,FEW,,0.00,WeatherDisplay:10.37,2013-04-26 20:52:00,
2013-04-26 16:57:00,66.0,27.1,30.00,NNE,22,3.5,3.5,23,0.00,FEW,,0.00,WeatherDisplay:10.37,2013-04-26 20:57:00,
2013-04-26 17:02:00,65.8,27.0,30.00,NW,315,3.5,3.5,23,0.00,FEW,,0.00,WeatherDisplay:10.37,2013-04-26 21:02:00,
2013-04-26 17:07:00,66.0,26.0,29.99,NW,315,4.6,4.6,22,0.00,FEW,,0.00,WeatherDisplay:10.37,2013-04-26 21:07:00,
2013-04-26 17:12:00,66.0,28.2,29.99,NW,315,3.5,3.5,24,0.00,FEW,,0.00,WeatherDisplay:10.37,2013-04-26 21:12:00,
2013-04-26 17:17:00,66.0,28.2,29.99,WSW,248,2.3,2.3,24,0.00,FEW,,0.00,WeatherDisplay:10.37,2013-04-26 21:17:00,
2013-04-26 17:22:00,66.2,28.3,29.99,SSE,158,2.3,2.3,24,0.00,FEW,,0.00,WeatherDisplay:10.37,2013-04-26 21:22:00,
2013-04-26 17:27:00,66.2,28.3,29.95,SE,135,0.0,0.7,24,0.00,FEW,,0.00,WeatherDisplay:10.37,2013-04-26 21:27:00,
2013-04-26 17:32:00,66.4,27.4,29.95,NW,315,4.6,4.6,23,0.00,FEW,,0.00,WeatherDisplay:10.37,2013-04-26 21:32:00,
2013-04-26 17:37:00,66.0,27.1,29.95,North,0,3.5,3.5,23,0.00,FEW,,0.00,WeatherDisplay:10.37,2013-04-26 21:37:00,
2013-04-26 17:42:00,66.0,26.0,29.95,ENE,68,2.3,2.3,22,0.00,FEW,,0.00,WeatherDisplay:10.37,2013-04-26 21:42:00,
2013-04-26 17:47:00,65.7,25.7,29.99,SSW,202,4.6,4.6,22,0.00,FEW,,0.00,WeatherDisplay:10.37,2013-04-26 21:47:00,
2013-04-26 17:52:00,65.5,26.7,29.99,NNE,22,2.3,2.3,23,0.00,FEW,,0.00,WeatherDisplay:10.37,2013-04-26 21:52:00,
2013-04-26 17:57:00,65.5,26.7,29.99,West,270,2.3,2.3,23,0.00,FEW,,0.00,WeatherDisplay:10.37,2013-04-26 21:57:00,
2013-04-26 18:02:00,65.7,26.8,29.99,NW,315,5.8,5.8,23,0.00,FEW,,0.00,WeatherDisplay:10.37,2013-04-26 22:02:00,
2013-04-26 18:07:00,65.8,27.0,29.95,NNW,338,1.2,1.8,23,0.00,FEW,,0.00,WeatherDisplay:10.37,2013-04-26 22:07:00,
2013-04-26 18:12:00,66.0,27.1,29.95,NW,315,4.6,4.6,23,0.00,FEW,,0.00,WeatherDisplay:10.37,2013-04-26 22:12:00,
2013-04-26 18:17:00,66.0,27.1,29.95,WNW,292,4.6,4.6,23,0.00,FEW,,0.00,WeatherDisplay:10.37,2013-04-26 22:17:00,
2013-04-26 18:22:00,66.0,29.2,29.95,West,270,2.3,2.3,25,0.00,FEW,,0.00,WeatherDisplay:10.37,2013-04-26 22:22:00,
2013-04-26 18:27:00,66.0,28.2,29.99,SSW,202,2.3,2.3,24,0.00,FEW,,0.00,WeatherDisplay:10.37,2013-04-26 22:27:00,
2013-04-26 18:32:00,66.0,28.2,29.99,South,180,2.3,2.3,24,0.00,FEW,,0.00,WeatherDisplay:10.37,2013-04-26 22:32:00,
2013-04-26 18:37:00,66.0,28.2,29.99,West,270,3.6,3.6,24,0.00,FEW,,0.00,WeatherDisplay:10.37,2013-04-26 22:37:00,
2013-04-26 18:42:00,66.0,28.2,29.99,South,180,2.3,2.3,24,0.00,FEW,,0.00,WeatherDisplay:10.37,2013-04-26 22:42:00,
2013-04-26 18:47:00,66.0,28.2,29.99,WNW,292,2.3,2.3,24,0.03,RA,,0.03,WeatherDisplay:10.37,2013-04-26 22:47:00,
2013-04-26 18:52:00,66.0,28.2,29.99,NW,315,3.7,3.7,24,0.03,RA,,0.03,WeatherDisplay:10.37,2013-04-26 22:52:00,
2013-04-26 18:57:00,66.0,28.2,29.99,NW,315,3.5,3.5,24,0.03,FEW,,0.03,WeatherDisplay:10.37,2013-04-26 22:57:00,
2013-04-26 19:02:00,66.0,28.2,29.99,North,0,2.3,2.3,24,0.03,FEW,,0.03,WeatherDisplay:10.37,2013-04-26 23:02:00,
2013-04-26 19:07:00,66.0,28.2,30.00,East,90,2.3,2.3,24,0.03,FEW,,0.03,WeatherDisplay:10.37,2013-04-26 23:07:00,
2013-04-26 19:12:00,66.0,28.2,30.00,South,180,0.0,0.3,24,0.06,RA,,0.06,WeatherDisplay:10.37,2013-04-26 23:12:00,
2013-04-26 19:17:00,66.0,28.2,30.00,West,270,0.0,0.0,24,0.06,RA,,0.06,WeatherDisplay:10.37,2013-04-26 23:17:00,
2013-04-26 19:22:00,66.0,28.2,30.00,NW,315,2.3,2.3,24,0.06,FEW,,0.06,WeatherDisplay:10.37,2013-04-26 23:22:00,
2013-04-26 19:27:00,66.0,28.2,30.01,NW,315,1.2,1.2,24,0.06,FEW,,0.06,WeatherDisplay:10.37,2013-04-26 23:27:00,
2013-04-26 19:32:00,66.0,28.2,30.01,WNW,292,2.3,2.3,24,0.06,FEW,,0.06,WeatherDisplay:10.37,2013-04-26 23:32:00,
2013-04-26 19:37:00,66.0,28.2,30.01,SSW,202,2.3,2.3,24,0.06,FEW,,0.06,WeatherDisplay:10.37,2013-04-26 23:37:00,
2013-04-26 19:42:00,66.0,28.2,30.01,WNW,292,0.0,0.3,24,0.06,FEW,,0.06,WeatherDisplay:10.37,2013-04-26 23:42:00,
2013-04-26 19:47:00,66.0,28.2,30.02,NW,315,0.0,0.2,24,0.03,FEW,,0.06,WeatherDisplay:10.37,2013-04-26 23:47:00,
2013-04-26 19:52:00,66.0,28.2,30.02,NW,315,1.2,1.2,24,0.03,FEW,,0.06,WeatherDisplay:10.37,2013-04-26 23:52:00,
2013-04-26 20:06:00,59.9,26.7,30.02,NW,315,0.0,0.0,28,0.03,FEW,,0.06,WeatherDisplay:10.37,2013-04-27 00:06:00,
2013-04-26 20:11:00,59.9,26.7,29.97,NW,315,0.0,0.0,28,0.00,FEW,,0.06,WeatherDisplay:10.37,2013-04-27 00:11:00,
2013-04-26 20:16:00,59.9,26.7,29.97,WNW,292,0.0,0.0,28,0.00,FEW,,0.06,WeatherDisplay:10.37,2013-04-27 00:16:00,
2013-04-26 20:21:00,59.9,26.7,29.97,WNW,292,0.0,0.0,28,0.00,FEW,,0.06,WeatherDisplay:10.37,2013-04-27 00:21:00,
2013-04-26 20:26:00,59.9,26.7,29.97,WNW,292,0.0,0.0,28,0.00,FEW,,0.06,WeatherDisplay:10.37,2013-04-27 00:26:00,
2013-04-26 20:31:00,59.9,26.7,30.03,NW,315,0.0,0.0,28,0.00,FEW,,0.06,WeatherDisplay:10.37,2013-04-27 00:31:00,
2013-04-26 20:36:00,59.9,26.7,30.03,NW,315,0.0,0.0,28,0.00,FEW,,0.06,WeatherDisplay:10.37,2013-04-27 00:36:00,
2013-04-26 20:41:00,59.9,26.7,30.03,NW,315,0.0,0.0,28,0.00,FEW,,0.06,WeatherDisplay:10.37,2013-04-27 00:41:00,
2013-04-26 20:46:00,57.0,28.9,30.03,SE,135,0.0,0.0,34,0.00,FEW,,0.06,WeatherDisplay:10.37,2013-04-27 00:46:00,
2013-04-26 20:51:00,56.8,27.3,30.04,East,90,0.0,0.0,32,0.00,FEW,,0.06,WeatherDisplay:10.37,2013-04-27 00:51:00,
2013-04-26 20:56:00,56.7,28.6,30.04,West,270,0.0,0.0,34,0.00,FEW,,0.06,WeatherDisplay:10.37,2013-04-27 00:56:00,
2013-04-26 21:01:00,56.3,28.3,30.04,NNW,338,0.0,0.0,34,0.00,FEW,,0.06,WeatherDisplay:10.37,2013-04-27 01:01:00,
2013-04-26 21:06:00,56.1,28.8,30.04,NNE,22,0.0,0.0,35,0.00,FEW,,0.06,WeatherDisplay:10.37,2013-04-27 01:06:00,
2013-04-26 21:11:00,55.9,29.3,30.02,ESE,112,0.0,0.0,36,0.00,FEW,,0.06,WeatherDisplay:10.37,2013-04-27 01:11:00,
2013-04-26 21:16:00,55.6,29.7,30.02,SSE,158,0.0,0.0,37,0.00,FEW,,0.06,WeatherDisplay:10.37,2013-04-27 01:16:00,
2013-04-26 21:21:00,55.4,31.5,30.02,ENE,68,0.0,0.0,40,0.00,FEW,,0.06,WeatherDisplay:10.37,2013-04-27 01:21:00,
2013-04-26 21:26:00,55.2,31.9,30.02,NE,45,0.0,0.0,41,0.00,FEW,,0.06,WeatherDisplay:10.37,2013-04-27 01:26:00,
2013-04-26 21:31:00,54.9,32.2,30.03,ENE,68,0.0,0.0,42,0.00,FEW,,0.06,WeatherDisplay:10.37,2013-04-27 01:31:00,
2013-04-26 21:36:00,54.7,32.0,30.03,NNW,338,0.0,0.0,42,0.00,FEW,,0.06,WeatherDisplay:10.37,2013-04-27 01:36:00,
2013-04-26 21:41:00,54.5,31.3,30.03,NNW,338,2.3,2.3,41,0.00,FEW,,0.06,WeatherDisplay:10.37,2013-04-27 01:41:00,
2013-04-26 21:46:00,54.3,-1.2,30.30,North,0,0.0,0.0,10,0.00,FEW,,0.06,WeatherDisplay:10.37,2013-04-27 01:46:00,
2013-04-26 21:51:00,54.3,-1.2,30.30,NW,315,0.0,0.0,10,0.00,FEW,,0.06,WeatherDisplay:10.37,2013-04-27 01:51:00,
2013-04-26 21:56:00,54.0,29.5,30.30,WNW,292,1.2,1.2,39,0.00,FEW,,0.06,WeatherDisplay:10.37,2013-04-27 01:56:00,
2013-04-26 22:01:00,54.0,29.5,30.30,NW,315,0.0,0.1,39,0.00,FEW,,0.06,WeatherDisplay:10.37,2013-04-27 02:01:00,
2013-04-26 22:06:00,53.8,29.4,30.30,NW,315,0.0,0.0,39,0.00,FEW,,0.06,WeatherDisplay:10.37,2013-04-27 02:06:00,
2013-04-26 22:11:00,53.6,29.8,30.30,WNW,292,0.0,0.0,40,0.00,FEW,,0.06,WeatherDisplay:10.37,2013-04-27 02:11:00,
2013-04-26 22:16:00,53.4,29.7,30.30,NW,315,0.0,0.1,40,0.00,FEW,,0.06,WeatherDisplay:10.37,2013-04-27 02:16:00,
2013-04-26 22:21:00,53.2,30.1,30.30,WNW,292,2.3,2.3,41,0.00,FEW,,0.06,WeatherDisplay:10.37,2013-04-27 02:21:00,
2013-04-26 22:26:00,53.1,30.0,30.30,West,270,0.0,0.2,41,0.00,FEW,,0.06,WeatherDisplay:10.37,2013-04-27 02:26:00,
2013-04-26 22:31:00,53.1,30.0,30.30,NNW,338,0.0,0.1,41,0.00,FEW,,0.06,WeatherDisplay:10.37,2013-04-27 02:31:00,
2013-04-26 22:36:00,53.1,30.0,30.30,NW,315,0.0,0.1,41,0.00,FEW,,0.06,WeatherDisplay:10.37,2013-04-27 02:36:00,
2013-04-26 22:41:00,52.7,31.4,30.30,NNW,338,0.0,0.2,44,0.00,FEW,,0.06,WeatherDisplay:10.37,2013-04-27 02:41:00,
2013-04-26 22:46:00,52.5,31.2,30.30,NNW,338,1.2,1.2,44,0.00,FEW,,0.06,WeatherDisplay:10.37,2013-04-27 02:46:00,
2013-04-26 22:51:00,52.5,30.6,30.30,WNW,292,1.2,1.2,43,0.00,FEW,,0.06,WeatherDisplay:10.37,2013-04-27 02:51:00,
2013-04-26 22:56:00,52.5,30.1,30.03,NW,315,0.0,0.3,42,0.00,FEW,,0.06,WeatherDisplay:10.37,2013-04-27 02:56:00,
2013-04-26 23:01:00,52.5,30.1,30.03,NW,315,0.0,0.2,42,0.00,FEW,,0.06,WeatherDisplay:10.37,2013-04-27 03:01:00,
2013-04-26 23:06:00,52.5,30.6,30.03,NW,315,0.0,0.5,43,0.00,FEW,,0.06,WeatherDisplay:10.37,2013-04-27 03:06:00,
2013-04-26 23:11:00,52.3,29.9,30.03,NNW,338,0.0,0.3,42,0.00,FEW,,0.06,WeatherDisplay:10.37,2013-04-27 03:11:00,
2013-04-26 23:16:00,52.3,30.5,29.90,NNW,338,0.0,0.0,43,0.00,FEW,,0.06,WeatherDisplay:10.37,2013-04-27 03:16:00,
2013-04-26 23:21:00,52.2,30.3,29.90,WNW,292,0.0,0.0,43,0.00,FEW,,0.06,WeatherDisplay:10.37,2013-04-27 03:21:00,
2013-04-26 23:26:00,52.0,30.7,29.90,ENE,68,0.0,0.0,44,0.00,FEW,,0.06,WeatherDisplay:10.37,2013-04-27 03:26:00,
2013-04-26 23:31:00,51.8,31.1,29.90,NNE,22,0.0,0.0,45,0.00,FEW,,0.06,WeatherDisplay:10.37,2013-04-27 03:31:00,
2013-04-26 23:36:00,51.8,31.1,29.99,NNE,22,0.0,0.0,45,0.00,FEW,,0.06,WeatherDisplay:10.37,2013-04-27 03:36:00,
2013-04-26 23:41:00,51.6,31.5,29.99,NW,315,0.0,0.1,46,0.00,FEW,,0.06,WeatherDisplay:10.37,2013-04-27 03:41:00,
2013-04-26 23:46:00,51.6,31.5,29.99,NNW,338,0.0,0.1,46,0.00,FEW,,0.06,WeatherDisplay:10.37,2013-04-27 03:46:00,
2013-04-26 23:51:00,51.6,31.5,29.99,West,270,3.5,3.5,46,0.00,FEW,,0.06,WeatherDisplay:10.37,2013-04-27 03:51:00,
2013-04-26 23:56:00,51.3,31.7,30.01,NE,45,0.0,0.3,47,0.00,FEW,,0.06,WeatherDisplay:10.37,2013-04-27 03:56:00,